Regional Weather Roundup
Issued by NWS Raleigh/Durham, NC

Home | Current Version | Previous Version | Text Only | Print | Product List | Glossary On
Versions: 1 2 3 4 5 6 7 8 9 10 11 12 13 14 15 16 17 18 19 20 21 22 23 24 25 26 27 28 29 30 31 32 33 34 35 36 37 38 39 40 41 42 43 44 45 46 47 48 49 50
000
ASUS42 KRAH 221210
RWRRAH
NORTH CAROLINA WEATHER ROUNDUP
NATIONAL WEATHER SERVICE RALEIGH NC
700 AM EST MON JAN 22 2018

NOTE: "FAIR" INDICATES FEW OR NO CLOUDS BELOW 12,000 FEET WITH NO
SIGNIFICANT WEATHER AND/OR OBSTRUCTIONS TO VISIBILITY.

NCZ001-053-055-056-065-067-221300-
WESTERN NORTH CAROLINA

CITY           SKY/WX    TMP DP  RH WIND       PRES   REMARKS
ASHEVILLE      FAIR      35  33  92 CALM      30.17S
JEFFERSON      FAIR      44  39  83 CALM      30.15S
MORGANTON      FAIR      37  37 100 N3        30.20S FOG
HICKORY        FAIR      40  39  97 CALM      30.16S
RUTHERFORDTON  FAIR      38  38 100 CALM      30.17S
MOUNT AIRY     FAIR      40  36  86 CALM      30.19R
BOONE          FAIR      33  33 100 CALM      30.16F
$$

NCZ021-022-025-041-071-084-088-221300-
CENTRAL NORTH CAROLINA

CITY           SKY/WX    TMP DP  RH WIND       PRES   REMARKS
CHARLOTTE      MOCLDY    41  39  93 CALM      30.19R
GREENSBORO     MOCLDY    41  39  93 S5        30.17S
WINSTON-SALEM  FAIR      41  38  89 CALM      30.19R
RALEIGH-DURHAM MOCLDY    38  37  97 CALM      30.20R
FORT BRAGG     FAIR      37  36  97 CALM      30.19R
FAYETTEVILLE   FAIR      38  37  97 CALM      30.20R
BURLINGTON     FAIR      37  34  89 CALM      30.18R
LAURINBURG     FAIR      35  33  92 CALM      30.21R
$$

NCZ011-015-027-028-043-044-047-080-103-221300-
NORTHEASTERN NORTH CAROLINA

CITY           SKY/WX    TMP DP  RH WIND       PRES   REMARKS
ROCKY MT-WILSO NOT AVBL
GREENVILLE     FAIR      36  34  93 CALM      30.23R
WASHINGTON     FAIR      39  36  91 CALM      30.22R
ELIZABETH CITY FAIR      38  38 100 SE7       30.21R WCI  33
MANTEO         FAIR      38  34  88 N6        30.23R WCI  33
CAPE HATTERAS  NOT AVBL
$$

NCZ078-087-090-091-093-098-101-221300-
SOUTHEASTERN NORTH CAROLINA

CITY           SKY/WX    TMP DP  RH WIND       PRES   REMARKS
LUMBERTON      FAIR      35  35 100 CALM      30.19F
GOLDSBORO      FAIR      38  35  90 CALM      30.19S
KINSTON        FAIR      36  36 100 SW3       30.22R
KENANSVILLE    FAIR      34  34 100 CALM      30.22R
NEW BERN       FAIR      33  33 100 CALM      30.23S
CHERRY POINT   CLEAR     34  33  96 E3        30.22F
BEAUFORT       FAIR      37  37 100 CALM      30.22F
JACKSONVILLE   FAIR      37  36  96 CALM      30.22R
WILMINGTON     FAIR      37  36  96 CALM      30.23R
$$




USA.gov is the U.S. government's official web portal to all federal, state and local government web resources and services.